Wind_Speed
14 13 14 15 16 19 22 25 27 30 31 32 32 33 33 33 32 32 32 32 35 38 42 47 50 52 53 53 53 52 52 51 50 49 49 50 50 50 50 50 49 48
14 13 14 15 16 17 19 21 24 26 28 30 31 32 32 32 32 32 32 32 33 34 36 40 45 49 51 52 53 53 53 53 52 51 50 50 51 51 52 51 50 50
17 16 15 15 16 17 18 20 22 23 25 28 29 31 31 32 32 33 33 32 33 33 33 35 38 42 47 50 52 53 54 54 53 52 52 51 51 52 52 52 52 51
20 19 18 17 16 16 17 19 21 22 24 26 27 28 30 31 32 32 33 33 33 33 33 34 35 37 40 45 49 52 54 54 54 54 53 53 53 53 53 53 53 53
22 22 21 20 18 16 16 17 18 20 22 24 25 25 27 28 30 31 32 32 33 33 34 34 35 36 37 39 43 47 50 53 54 54 54 54 54 54 54 54 54 54
24 23 22 21 20 19 18 17 16 17 18 19 21 23 24 25 26 28 29 31 32 33 34 35 36 37 38 39 40 43 45 48 50 52 54 55 55 55 55 55 55 55
26 25 23 22 21 21 21 20 18 18 17 17 19 20 21 22 24 25 26 28 30 32 33 35 36 37 38 39 41 43 44 45 47 49 51 53 55 56 56 55 55 56
26 26 25 24 23 22 22 22 22 21 20 19 19 19 19 20 21 23 24 25 28 30 32 34 35 37 38 40 41 42 44 45 46 48 49 51 53 55 57 57 57 57
26 26 26 25 25 24 23 23 23 23 23 22 21 20 20 20 20 21 22 23 25 28 30 32 34 35 37 39 41 42 44 45 46 47 48 50 52 53 55 56 57 58
25 26 26 26 26 26 25 24 24 24 24 24 23 22 21 21 21 22 22 23 25 26 28 30 32 34 36 38 39 41 43 44 45 47 48 50 52 53 54 55 57 58
24 25 26 26 26 26 26 26 26 25 25 25 25 25 24 23 23 23 23 25 26 27 28 29 30 32 34 37 38 40 41 43 45 47 48 50 51 53 54 55 56 58
23 23 24 25 26 26 27 27 26 26 25 25 26 26 26 26 25 25 25 26 27 27 28 29 30 31 33 36 38 40 41 42 44 46 48 50 52 53 53 54 55 57
26 24 24 24 24 25 26 27 27 27 26 25 25 26 27 27 28 28 27 28 28 29 29 29 29 30 32 34 37 40 42 43 44 46 48 50 51 53 54 54 55 56
32 30 27 26 25 25 25 25 26 26 27 26 26 26 26 27 28 29 29 29 30 31 31 31 31 31 32 33 36 39 42 43 45 46 48 49 50 51 53 54 56 57
36 35 33 31 29 28 27 27 26 26 26 27 26 26 26 26 26 27 28 30 30 31 32 33 34 34 33 33 34 36 39 41 44 46 48 48 50 51 52 53 55 57
35 36 37 36 34 32 30 29 29 28 28 28 27 28 27 26 26 26 27 28 30 31 31 32 34 35 34 33 33 35 37 39 42 45 46 48 51 53 53 53 54 57
32 33 35 36 37 37 35 33 31 31 30 30 30 30 30 29 28 27 27 27 29 30 31 32 33 34 34 33 33 34 35 37 40 43 45 48 51 53 54 53 54 56
32 33 34 35 37 39 39 38 36 34 32 32 32 32 33 33 32 31 30 29 30 30 31 32 33 33 33 33 33 33 33 36 39 42 44 47 49 51 53 53 54 55
33 33 34 36 37 38 39 40 40 39 37 35 35 34 34 34 34 34 33 33 32 33 33 33 33 33 33 33 33 33 32 34 38 40 42 45 48 50 51 53 53 54
35 35 36 37 37 38 39 40 41 41 41 40 39 38 37 37 36 36 35 35 35 35 35 36 35 34 34 34 34 33 32 33 36 39 41 43 47 49 51 52 53 53
37 37 37 38 38 39 39 40 40 41 42 43 42 41 40 39 39 38 37 36 35 36 37 38 37 35 35 34 34 33 31 31 34 38 41 43 46 49 51 52 52 52
39 39 39 39 39 40 40 41 41 42 42 43 44 44 44 43 41 41 40 39 37 36 37 39 39 37 36 36 35 33 31 31 33 37 41 44 46 48 50 51 52 52
41 41 41 40 40 41 42 42 42 42 43 44 45 46 46 46 45 44 43 42 41 39 38 39 39 38 37 37 37 35 32 31 33 36 40 44 46 46 47 50 51 51
45 44 44 43 43 43 43 43 43 43 44 45 46 47 48 49 49 48 47 45 44 43 41 40 40 39 38 38 38 37 34 33 33 35 39 43 45 45 45 47 49 50
48 48 47 47 47 46 46 46 46 45 45 46 47 48 49 50 51 52 52 50 47 45 44 43 42 40 38 38 39 38 37 35 34 35 38 42 43 44 45 47 48 49
51 51 51 51 51 51 51 50 50 49 48 48 48 49 50 52 52 53 54 54 52 49 47 46 45 42 39 38 39 38 38 37 35 36 39 42 43 43 44 47 49 49
Wind_Direction
333 318 311 305 300 297 295 294 293 290 288 286 285 284 284 283 281 278 276 271 266 261 256 252 249 247 246 245 244 244 244 244 243 243 242 241 241 241 240 240 239 239
341 329 321 313 306 300 297 295 293 292 290 289 287 286 285 284 282 280 278 275 271 267 263 258 254 250 247 246 245 245 245 244 244 243 242 241 241 241 240 240 239 239
355 347 337 325 313 304 299 294 291 290 290 289 288 288 287 287 285 282 280 277 274 271 267 263 259 255 252 248 246 246 246 245 245 244 243 242 241 240 240 240 239 239
5 0 353 342 325 310 301 295 292 292 290 288 287 287 287 286 286 283 281 279 276 274 271 267 264 260 257 253 250 248 247 247 246 246 245 243 242 241 240 240 239 238
8 5 1 356 345 330 314 302 296 293 291 290 288 286 284 284 283 283 282 281 278 276 273 270 267 263 260 257 254 252 251 250 248 247 246 245 243 242 241 240 239 238
5 5 4 2 357 350 340 326 309 297 291 290 288 287 286 283 281 281 281 281 281 279 276 273 270 266 263 260 257 255 254 253 252 250 248 247 245 243 242 241 240 239
359 1 2 2 1 359 356 350 339 323 308 296 290 288 286 284 283 281 280 280 279 278 277 275 273 270 267 264 261 258 256 254 253 252 251 249 247 245 243 242 241 240
354 355 356 357 358 358 358 357 354 348 336 320 308 299 291 285 283 280 279 278 278 277 276 275 273 271 269 266 264 262 260 257 255 253 252 251 249 247 245 243 241 241
347 348 349 351 353 356 357 355 354 352 348 341 331 319 306 296 289 284 280 276 275 275 274 274 273 271 269 267 265 264 262 260 259 257 255 253 251 249 247 245 243 241
340 340 342 344 346 350 352 352 352 351 349 347 342 334 323 311 300 293 287 282 277 274 272 272 271 271 269 268 266 265 263 262 261 260 258 256 254 252 250 248 245 243
336 335 335 336 338 340 343 345 347 348 347 346 344 341 335 325 314 304 296 289 284 281 277 274 272 271 271 269 268 266 264 263 261 260 259 258 257 256 254 251 248 246
337 335 334 333 333 332 333 335 337 339 341 342 342 341 339 335 328 319 309 298 291 286 282 278 275 272 270 269 269 267 265 263 262 261 260 259 258 257 256 254 252 250
339 339 337 334 332 330 329 329 329 330 332 334 335 335 335 335 333 329 323 313 303 295 288 283 278 274 270 269 269 269 267 265 263 262 260 259 258 258 257 256 254 252
337 338 337 336 333 330 328 326 325 325 325 326 328 328 329 330 330 330 328 323 316 307 298 291 285 279 274 270 270 270 269 267 265 263 261 260 260 259 258 257 256 254
333 333 334 335 334 332 330 327 324 323 321 321 322 323 323 323 324 325 325 324 322 316 308 299 292 286 280 275 272 271 270 269 268 266 264 263 261 259 257 257 256 255
328 329 329 330 331 332 331 329 326 324 322 320 319 318 317 317 316 317 319 320 320 319 315 308 300 293 287 282 278 274 272 271 268 267 266 264 261 259 257 256 255 255
322 323 324 326 327 328 328 329 328 326 325 323 321 318 316 314 312 312 312 314 315 316 315 313 308 302 294 287 282 278 275 271 269 268 266 262 260 260 258 257 256 255
317 318 318 320 321 322 323 324 325 325 325 324 323 321 319 316 314 312 310 310 311 311 311 311 311 309 302 292 285 281 277 273 271 270 266 262 261 261 260 259 258 257
313 313 314 315 316 316 317 319 320 321 322 323 322 321 320 318 317 314 311 309 308 307 307 307 307 309 309 300 289 282 279 275 272 270 266 263 263 263 262 261 260 258
310 310 311 312 312 313 313 314 315 316 317 318 319 318 317 316 316 315 313 311 308 306 305 303 302 306 309 307 297 287 280 276 273 271 267 264 263 263 262 261 261 261
306 307 308 309 309 310 311 312 313 313 313 314 315 315 314 313 312 312 312 310 308 306 303 301 300 302 305 307 303 293 283 277 275 271 267 264 263 262 261 260 261 261
302 302 303 305 305 306 307 309 310 310 310 311 311 310 310 310 309 308 308 307 306 305 302 300 299 300 300 302 303 298 286 276 273 270 266 264 262 261 260 260 260 260
299 299 299 300 300 301 302 304 305 306 306 307 307 306 306 306 306 305 304 303 303 303 302 300 298 298 298 298 299 299 290 277 271 268 266 264 263 262 262 261 261 259
299 298 298 297 296 296 297 298 299 300 301 302 302 302 302 302 302 302 301 300 300 300 300 299 297 296 296 295 295 297 294 282 273 268 266 264 264 264 263 262 262 260
299 298 297 296 296 295 295 295 294 294 295 296 296 297 298 298 299 299 298 297 297 297 297 297 296 294 293 292 292 294 294 288 277 269 266 265 264 264 263 262 261 260
298 297 296 296 295 295 294 293 293 292 292 291 291 292 293 294 295 295 296 295 295 294 294 293 294 293 293 291 289 289 290 290 282 272 266 264 264 263 262 260 260 259
Height
1441 1440 1439 1437 1437 1437 1438 1438 1438 1438 1438 1438 1438 1438 1438 1439 1440 1440 1441 1441 1442 1442 1444 1446 1448 1451 1454 1456 1458 1460 1461 1463 1465 1467 1469 1471 1472 1473 1474 1476 1478 1479
1441 1439 1437 1435 1435 1435 1435 1435 1435 1435 1435 1435 1435 1435 1435 1436 1436 1437 1438 1438 1438 1439 1440 1442 1443 1446 1448 1451 1453 1455 1456 1458 1460 1462 1463 1465 1467 1468 1469 1471 1472 1474
1441 1438 1435 1434 1433 1433 1433 1432 1432 1432 1432 1432 1432 1432 1432 1432 1433 1433 1434 1435 1435 1436 1437 1438 1439 1441 1443 1445 1447 1449 1451 1453 1454 1457 1459 1460 1461 1462 1464 1466 1467 1469
1440 1437 1434 1433 1432 1432 1431 1430 1430 1429 1429 1429 1429 1429 1429 1429 1430 1430 1430 1431 1432 1432 1433 1434 1435 1436 1438 1440 1442 1444 1445 1447 1449 1451 1453 1454 1456 1457 1458 1460 1462 1463
1439 1436 1434 1433 1432 1431 1430 1428 1428 1427 1426 1426 1426 1425 1425 1425 1426 1426 1426 1427 1428 1429 1429 1430 1431 1432 1433 1435 1436 1438 1440 1441 1443 1446 1447 1448 1450 1451 1453 1455 1456 1458
1438 1436 1435 1434 1432 1431 1429 1427 1426 1425 1424 1423 1423 1422 1422 1422 1422 1422 1422 1423 1424 1424 1425 1426 1427 1428 1429 1430 1431 1432 1434 1435 1437 1439 1441 1442 1444 1446 1447 1449 1451 1452
1438 1437 1435 1434 1432 1430 1428 1427 1426 1424 1422 1421 1420 1420 1419 1419 1418 1418 1418 1419 1419 1420 1421 1422 1423 1424 1425 1426 1427 1427 1428 1430 1431 1433 1434 1436 1438 1439 1441 1443 1445 1446
1439 1437 1435 1434 1432 1430 1428 1426 1425 1423 1421 1420 1418 1417 1417 1416 1416 1415 1415 1415 1415 1415 1416 1417 1418 1419 1420 1421 1422 1423 1423 1424 1425 1427 1428 1429 1431 1432 1434 1437 1439 1440
1440 1438 1435 1433 1431 1429 1428 1426 1424 1422 1420 1418 1417 1416 1414 1413 1413 1412 1412 1411 1411 1411 1412 1412 1413 1414 1415 1416 1416 1417 1418 1419 1420 1421 1422 1423 1424 1425 1427 1430 1432 1433
1439 1437 1435 1433 1430 1428 1426 1424 1422 1420 1419 1417 1415 1414 1413 1412 1410 1409 1408 1407 1407 1407 1407 1408 1408 1409 1410 1410 1411 1412 1413 1414 1415 1415 1416 1417 1418 1419 1421 1423 1425 1427
1438 1436 1434 1431 1429 1427 1425 1423 1421 1419 1417 1415 1413 1412 1411 1409 1408 1406 1405 1404 1403 1403 1403 1403 1403 1404 1405 1405 1406 1407 1408 1408 1409 1409 1410 1411 1412 1413 1415 1417 1419 1420
1436 1434 1432 1430 1428 1425 1423 1421 1419 1417 1416 1414 1412 1410 1408 1407 1405 1403 1402 1400 1399 1399 1399 1399 1399 1399 1399 1399 1400 1401 1402 1403 1403 1404 1404 1405 1406 1407 1408 1411 1412 1414
1433 1432 1430 1428 1426 1424 1422 1419 1417 1416 1414 1412 1410 1408 1406 1404 1402 1400 1398 1397 1395 1394 1394 1394 1394 1394 1393 1393 1394 1395 1396 1397 1398 1398 1399 1399 1399 1400 1402 1404 1405 1407
1430 1428 1427 1426 1424 1422 1420 1418 1416 1414 1412 1410 1408 1406 1404 1402 1400 1398 1395 1393 1392 1390 1389 1389 1389 1388 1388 1388 1389 1389 1390 1391 1392 1393 1393 1394 1394 1394 1396 1397 1398 1399
1427 1425 1423 1422 1421 1419 1417 1415 1413 1411 1409 1407 1405 1403 1401 1400 1398 1396 1393 1391 1389 1387 1386 1384 1383 1382 1383 1384 1384 1384 1384 1385 1387 1388 1388 1388 1388 1388 1389 1390 1390 1391
1425 1422 1420 1418 1417 1416 1414 1412 1410 1408 1406 1404 1403 1401 1399 1397 1395 1393 1391 1389 1387 1385 1383 1381 1379 1378 1378 1378 1378 1379 1379 1380 1381 1382 1382 1382 1381 1381 1381 1382 1383 1383
1423 1421 1418 1415 1413 1411 1410 1409 1407 1405 1403 1401 1399 1398 1396 1394 1392 1390 1388 1387 1385 1383 1381 1378 1376 1374 1373 1373 1372 1373 1374 1374 1375 1376 1376 1376 1375 1374 1374 1375 1376 1377
1421 1418 1415 1413 1410 1408 1405 1403 1402 1401 1399 1398 1396 1395 1393 1391 1389 1387 1385 1383 1381 1379 1378 1375 1373 1371 1370 1368 1367 1367 1368 1369 1369 1370 1369 1369 1368 1367 1368 1369 1370 1371
1418 1415 1412 1410 1408 1405 1402 1399 1397 1395 1394 1393 1392 1391 1389 1388 1386 1384 1381 1379 1377 1375 1373 1371 1370 1369 1367 1365 1363 1362 1363 1364 1364 1364 1363 1362 1361 1361 1362 1362 1363 1365
1414 1411 1409 1407 1405 1402 1399 1396 1393 1390 1388 1387 1386 1385 1385 1383 1382 1380 1378 1376 1374 1371 1369 1367 1366 1365 1364 1362 1360 1358 1358 1358 1358 1358 1357 1356 1355 1355 1355 1356 1356 1358
1409 1407 1405 1403 1401 1398 1396 1393 1390 1387 1385 1383 1381 1380 1379 1378 1377 1376 1374 1372 1370 1368 1365 1362 1361 1360 1359 1358 1356 1354 1354 1353 1352 1351 1350 1349 1348 1348 1349 1349 1350 1352
1405 1402 1400 1398 1396 1394 1391 1389 1386 1384 1382 1379 1377 1375 1374 1372 1372 1371 1370 1368 1366 1364 1361 1357 1356 1356 1355 1354 1352 1351 1350 1348 1346 1345 1344 1343 1342 1341 1342 1343 1344 1345
1399 1397 1394 1392 1390 1388 1386 1384 1382 1380 1378 1376 1373 1371 1369 1367 1366 1365 1364 1363 1361 1359 1356 1353 1350 1350 1350 1349 1348 1347 1346 1343 1341 1339 1337 1336 1334 1335 1336 1336 1337 1339
1393 1391 1388 1386 1384 1382 1380 1378 1377 1375 1374 1371 1369 1366 1364 1362 1360 1359 1358 1357 1355 1353 1351 1348 1345 1345 1345 1344 1343 1343 1341 1338 1336 1334 1331 1329 1328 1328 1330 1330 1330 1332
1386 1384 1382 1380 1377 1376 1374 1372 1370 1369 1368 1366 1364 1361 1358 1356 1355 1352 1350 1349 1349 1347 1345 1343 1340 1339 1339 1339 1337 1337 1336 1333 1331 1329 1325 1322 1322 1322 1324 1324 1324 1326
1379 1377 1375 1373 1370 1368 1366 1365 1363 1362 1360 1359 1358 1355 1353 1351 1349 1346 1343 1341 1341 1341 1339 1337 1335 1333 1333 1333 1332 1331 1330 1328 1326 1323 1319 1317 1317 1317 1318 1318 1318 1319